Location: Newark
(44.5869°N, 123.1150°W)
Time: 00:56:20
(UTC+00:00)

Envisat - Visible Passes

Search period start: 01 October 2020 00:00
Search period end: 11 October 2020 00:00
Orbit: 764 x 766 km, 98.1° (Epoch: 30 September)

Date Brightness Start Highest point End Pass type
(mag) Time Alt. Az. Time Alt. Az. Time Alt. Az.
01 Oct 6.2 02:43:04 10° SW 02:46:21 17° W 02:49:40 10° NW visible
01 Oct 6.1 13:09:58 10° NE 13:13:32 19° E 13:17:05 10° SE visible
03 Oct 5.2 13:34:40 10° NNE 13:39:13 32° E 13:43:43 10° SSE visible
04 Oct 5.9 02:31:02 10° SW 02:34:53 22° W 02:38:44 10° NW visible
04 Oct 6.2 12:59:11 10° NE 13:02:03 15° E 13:04:53 10° ESE visible
06 Oct 6.5 02:58:34 10° WSW 03:00:37 12° W 03:02:41 10° WNW visible
06 Oct 5.6 13:23:33 10° NE 13:27:46 25° E 13:31:56 10° SSE visible
07 Oct 5.5 02:19:09 10° SSW 02:23:24 27° W 02:27:42 10° NW visible
07 Oct 6.5 12:48:47 10° ENE 12:50:32 12° E 12:52:16 10° ESE visible
08 Oct 4.5 13:48:31 10° NNE 13:53:22 43° E 13:58:11 10° S visible
09 Oct 6.2 02:46:05 10° SW 02:49:06 16° W 02:52:09 10° NW visible
09 Oct 5.9 13:12:32 10° NE 13:16:17 20° E 13:20:02 10° SE visible
10 Oct 5.1 02:07:24 10° SSW 02:11:57 33° W 02:16:33 10° NNW visible
